Kuchera_Ratio
0.0 0.0 0.0 0.0 0.0 0.0 0.0 0.0 0.0 0.0 0.0 0.0 0.0 0.0 0.0 0.0 0.0 0.0 0.0 0.2 0.2 2.0
0.0 0.0 0.0 0.0 0.0 0.0 0.0 0.0 0.0 0.0 0.0 0.0 0.0 0.0 0.0 0.0 0.0 0.0 0.2 1.2 1.2 1.7
0.0 0.0 0.0 0.0 0.0 0.0 0.0 0.0 0.0 0.0 0.0 0.0 0.0 0.0 0.0 1.2 0.2 2.0 2.0 2.0 3.2 3.2
0.0 0.0 0.0 0.0 0.0 0.0 0.0 0.0 0.0 0.0 0.6 2.6 2.2 1.3 4.8 6.0 4.8 6.0 6.8 5.8 6.6 6.0
0.0 0.0 0.0 0.0 0.0 0.0 0.0 0.0 0.0 0.2 2.8 4.4 6.6 7.0 6.4 8.0 9.2 10.0 11.0 10.9 10.3 9.9
1.2 1.1 3.2 3.4 3.0 1.8 3.6 6.6 6.6 6.1 7.4 7.9 8.7 9.5 8.5 8.8 9.6 12.1 11.9 11.3 11.5 11.5
3.0 3.0 6.2 6.6 3.2 4.4 7.0 9.4 8.9 8.8 9.2 9.8 10.2 10.1 10.0 11.6 12.8 12.5 12.1 12.2 12.3 12.4
0.2 0.6 2.6 2.2 2.2 2.6 4.8 7.2 10.0 10.5 10.4 9.9 9.2 7.0 8.2 8.2 12.3 12.2 12.6 12.6 12.7 11.1
0.0 0.0 1.0 0.0 0.0 2.0 3.2 6.0 5.4 6.6 6.8 9.4 3.0 6.8 5.0 3.0 7.0 6.2 7.4 9.8 9.6 8.7
0.0 0.0 0.0 0.0 0.0 0.2 3.2 3.2 3.4 3.0 2.6 6.8 8.6 6.4 5.4 5.0 4.4 6.4 8.0 8.6 9.6 8.2
0.0 0.0 0.0 0.0 0.0 0.2 0.0 1.8 2.2 2.8 2.8 6.6 7.0 7.2 6.4 6.8 3.7 8.4 9.6 10.2 10.2 12.1
0.0 0.0 0.0 0.0 0.2 0.0 0.6 1.8 2.1 2.6 4.4 8.8 10.6 7.6 7.0 7.8 7.0 8.2 11.0 11.9 12.4 12.5
1.2 0.0 0.0 0.4 0.6 0.4 1.0 1.6 3.1 3.8 6.0 5.4 11.8 8.4 7.4 7.8 7.6 9.3 10.4 13.3 13.3 12.4
0.0 0.0 0.0 0.7 0.6 0.9 2.3 4.6 8.4 10.2 11.2 11.4 11.2 11.8 8.0 6.0 10.4 11.2 12.0 12.4 14.6 15.5